Sand Point, AK

5:23 AM AKST on February 22, 2017 (GMT -0900)
Sand Point

Weather History for PASD - August, 2013

Change the Weather History Date:

Friday, August 23, 2013

  Actual Average Record
Temperature  
Mean Temperature 60 °F -  
Max Temperature 64 °F 54 °F 70 °F (1987)
Min Temperature 55 °F 48 °F 44 °F (1980)
Degree Days  
Heating Degree Days 6    
Growing Degree Days 10 (Base 50)    
Moisture  
Dew Point 57 °F    
Average Humidity 92    
Maximum Humidity 100    
Minimum Humidity 77    
Precipitation  
Precipitation 0.00 in - - ()
Sea Level Pressure  
Sea Level Pressure 29.92 in    
Wind  
Wind Speed 6 mph (NW)    
Max Wind Speed 17 mph    
Max Gust Speed 21 mph    
Visibility 10 miles    
Events      
Averages and records for this station are not official NWS values.
T = Trace of Precipitation, MM = Missing Value Source: NWS Daily Summary

Daily Weather History Graph

Daily Weather History Graph

Search for Another Location

Airport or City:

Trip Planner

Search our weather history database for the weather conditions in past years. The results will help you decide how hot, cold, wet, or windy it might be!

Date:

Astronomy

Aug. 23, 2013 Rise Set
Actual Time 7:31 AM AKDT 9:56 PM AKDT
Civil Twilight 6:51 AM AKDT 10:36 PM AKDT
Nautical Twilight 5:59 AM AKDT 11:27 PM AKDT
Astronomical Twilight 4:55 AM AKDT 12:30 AM AKDT
Moon 10:34 PM AKDT (8/23) 11:22 AM AKDT (8/23)
Length of Visible Light 15h 44m
Length of Day
14h 24m
Waning Gibbous, 90% of the Moon is Illuminated
Aug 23
Waning Gibbous
Aug 28
Last Quarter
Sep 5
New
Sep 12
First Quarter
Sep 19
Full

Hourly Weather History & Observations

Time (AKDT) Temp. Dew Point Humidity Pressure Visibility Wind Dir Wind Speed Gust Speed Precip Events Conditions
12:16 AM 60.8 °F 57.2 °F 88% 29.97 in 10.0 mi South 5.8 mph - N/A   Clear
12:36 AM 60.8 °F 57.2 °F 88% 29.97 in 10.0 mi Calm Calm - N/A   Clear
12:56 AM 59.0 °F 57.2 °F 94% 29.97 in 10.0 mi North 3.5 mph - N/A   Scattered Clouds
1:16 AM 59.0 °F 57.2 °F 94% 29.97 in 10.0 mi Calm Calm - N/A   Mostly Cloudy
1:36 AM 60.8 °F 57.2 °F 88% 29.97 in 10.0 mi West 5.8 mph - N/A   Mostly Cloudy
1:56 AM 57.2 °F 57.2 °F 100% 29.97 in 10.0 mi WNW 4.6 mph - N/A   Clear
2:16 AM 59.0 °F 57.2 °F 94% 29.96 in 10.0 mi ENE 5.8 mph - N/A   Clear
2:36 AM 59.0 °F 57.2 °F 94% 29.97 in 10.0 mi NNW 4.6 mph - N/A   Mostly Cloudy
2:56 AM 59.0 °F 57.2 °F 94% 29.97 in 10.0 mi North 4.6 mph - N/A   Overcast
3:16 AM 59.0 °F 57.2 °F 94% 29.97 in 10.0 mi Calm Calm - N/A   Overcast
3:36 AM 59.0 °F 57.2 °F 94% 29.96 in 10.0 mi NNW 5.8 mph - N/A   Mostly Cloudy
3:56 AM 59.0 °F 57.2 °F 94% 29.95 in 10.0 mi Calm Calm - N/A   Mostly Cloudy
4:16 AM 59.0 °F 57.2 °F 94% 29.95 in 10.0 mi ENE 3.5 mph - N/A   Overcast
4:36 AM 59.0 °F 57.2 °F 94% 29.95 in 10.0 mi WNW 4.6 mph - N/A   Overcast
4:56 AM 59.0 °F 57.2 °F 94% 29.95 in 10.0 mi NNW 4.6 mph - N/A   Overcast
5:16 AM 59.0 °F 57.2 °F 94% 29.95 in 10.0 mi North 8.1 mph - N/A   Overcast
5:36 AM 59.0 °F 57.2 °F 94% 29.95 in 10.0 mi North 5.8 mph - N/A   Overcast
5:56 AM 59.0 °F 57.2 °F 94% 29.94 in 10.0 mi NNW 3.5 mph - N/A   Overcast
6:16 AM 57.2 °F 55.4 °F 94% 29.94 in 10.0 mi Calm Calm - N/A   Overcast
6:36 AM 57.2 °F 55.4 °F 94% 29.94 in 10.0 mi NW 3.5 mph - N/A   Overcast
6:56 AM 57.2 °F 55.4 °F 94% 29.93 in 10.0 mi NW 6.9 mph - N/A   Overcast
7:16 AM 57.2 °F 55.4 °F 94% 29.94 in 10.0 mi NNW 3.5 mph - N/A   Mostly Cloudy
7:36 AM 57.2 °F 55.4 °F 94% 29.93 in 10.0 mi Calm Calm - N/A   Mostly Cloudy
7:56 AM 57.2 °F 55.4 °F 94% 29.93 in 10.0 mi East 3.5 mph - N/A   Mostly Cloudy
8:16 AM 57.2 °F 55.4 °F 94% 29.93 in 10.0 mi NNE 3.5 mph - N/A   Mostly Cloudy
8:36 AM 57.2 °F 55.4 °F 94% 29.93 in 10.0 mi North 5.8 mph - N/A   Mostly Cloudy
8:56 AM 57.2 °F 55.4 °F 94% 29.93 in 10.0 mi North 3.5 mph - N/A   Overcast
9:16 AM 57.2 °F 55.4 °F 94% 29.93 in 10.0 mi Calm Calm - N/A   Overcast
9:36 AM 57.2 °F 57.2 °F 100% 29.93 in 9.0 mi NE 3.5 mph - N/A   Overcast
9:56 AM 57.2 °F 57.2 °F 100% 29.94 in 9.0 mi Calm Calm - N/A   Overcast
10:16 AM 57.2 °F 57.2 °F 100% 29.93 in 9.0 mi Calm Calm - N/A   Overcast
10:36 AM 57.2 °F 57.2 °F 100% 29.93 in 10.0 mi Calm Calm - N/A   Overcast
10:56 AM 57.2 °F 57.2 °F 100% 29.93 in 10.0 mi NW 4.6 mph - N/A   Overcast
11:16 AM 57.2 °F 57.2 °F 100% 29.93 in 10.0 mi NNE 5.8 mph - N/A   Mostly Cloudy
11:36 AM 57.2 °F 57.2 °F 100% 29.93 in 10.0 mi NW 6.9 mph - N/A   Overcast
11:56 AM 57.2 °F 57.2 °F 100% 29.93 in 10.0 mi NW 6.9 mph - N/A   Overcast
12:16 PM 59.0 °F 57.2 °F 94% 29.92 in 10.0 mi WNW 6.9 mph - N/A   Overcast
12:36 PM 59.0 °F 57.2 °F 94% 29.92 in 10.0 mi WNW 10.4 mph - N/A   Overcast
12:56 PM 59.0 °F 57.2 °F 94% 29.92 in 10.0 mi WNW 10.4 mph - N/A   Mostly Cloudy
1:16 PM 59.0 °F 57.2 °F 94% 29.91 in 10.0 mi NW 8.1 mph - N/A   Mostly Cloudy
1:36 PM 60.8 °F 59.0 °F 94% 29.91 in 10.0 mi NW 5.8 mph - N/A   Mostly Cloudy
1:56 PM 60.8 °F 59.0 °F 94% 29.91 in 10.0 mi WNW 10.4 mph 16.1 mph N/A   Overcast
2:16 PM 60.8 °F 59.0 °F 94% 29.91 in 10.0 mi WNW 12.7 mph - N/A   Overcast
2:36 PM 60.8 °F 59.0 °F 94% 29.91 in 10.0 mi NW 9.2 mph - N/A   Overcast
2:56 PM 60.8 °F 59.0 °F 94% 29.91 in 10.0 mi West 13.8 mph - N/A   Mostly Cloudy
3:16 PM 60.8 °F 57.2 °F 88% 29.91 in 10.0 mi WNW 10.4 mph - N/A   Mostly Cloudy
3:36 PM 60.8 °F 57.2 °F 88% 29.90 in 10.0 mi WNW 10.4 mph - N/A   Mostly Cloudy
3:56 PM 62.6 °F 57.2 °F 82% 29.90 in 10.0 mi WNW 10.4 mph - N/A   Mostly Cloudy
4:16 PM 62.6 °F 59.0 °F 88% 29.89 in 10.0 mi WNW 10.4 mph - N/A   Mostly Cloudy
4:36 PM 64.4 °F 57.2 °F 77% 29.89 in 10.0 mi West 15.0 mph 20.7 mph N/A   Mostly Cloudy
4:56 PM 62.6 °F 57.2 °F 82% 29.87 in 10.0 mi WNW 15.0 mph 20.7 mph N/A   Mostly Cloudy
5:16 PM 62.6 °F 57.2 °F 82% 29.87 in 10.0 mi WNW 13.8 mph 19.6 mph N/A   Mostly Cloudy
5:36 PM 62.6 °F 57.2 °F 82% 29.87 in 10.0 mi West 12.7 mph - N/A   Mostly Cloudy
5:56 PM 62.6 °F 57.2 °F 82% 29.88 in 10.0 mi West 17.3 mph - N/A   Mostly Cloudy
6:16 PM 60.8 °F 57.2 °F 88% 29.86 in 10.0 mi WNW 15.0 mph - N/A   Mostly Cloudy
6:36 PM 62.6 °F 57.2 °F 82% 29.89 in 10.0 mi West 13.8 mph - N/A   Mostly Cloudy
6:56 PM 60.8 °F 57.2 °F 88% 29.88 in 10.0 mi West 12.7 mph - N/A   Mostly Cloudy
7:16 PM 60.8 °F 57.2 °F 88% 29.88 in 10.0 mi West 13.8 mph - N/A   Mostly Cloudy
7:36 PM 60.8 °F 57.2 °F 88% 29.88 in 10.0 mi West 11.5 mph - N/A   Mostly Cloudy
7:56 PM 60.8 °F 57.2 °F 88% 29.88 in 10.0 mi West 10.4 mph - N/A   Mostly Cloudy
8:16 PM 60.8 °F 55.4 °F 82% 29.88 in 10.0 mi West 11.5 mph - N/A   Partly Cloudy
8:36 PM 60.8 °F 55.4 °F 82% 29.88 in 10.0 mi West 11.5 mph - N/A   Mostly Cloudy
8:56 PM 59.0 °F 55.4 °F 88% 29.88 in 10.0 mi West 9.2 mph - N/A   Overcast
9:16 PM 57.2 °F 55.4 °F 94% 29.88 in 10.0 mi West 11.5 mph - N/A   Overcast
9:36 PM 57.2 °F 55.4 °F 94% 29.88 in 10.0 mi West 10.4 mph - N/A   Overcast
9:56 PM 57.2 °F 55.4 °F 94% 29.89 in 10.0 mi West 9.2 mph - N/A   Overcast
10:16 PM 57.2 °F 55.4 °F 94% 29.88 in 10.0 mi West 11.5 mph - N/A   Overcast
10:36 PM 57.2 °F 53.6 °F 88% 29.88 in 10.0 mi WNW 8.1 mph - N/A   Overcast
10:56 PM 55.4 °F 53.6 °F 94% 29.89 in 10.0 mi WNW 9.2 mph - N/A   Overcast
11:16 PM 55.4 °F 53.6 °F 94% 29.89 in 10.0 mi WNW 10.4 mph - N/A   Overcast
11:36 PM 55.4 °F 53.6 °F 94% 29.89 in 10.0 mi WNW 12.7 mph 16.1 mph N/A   Mostly Cloudy
11:56 PM 55.4 °F 53.6 °F 94% 29.89 in 10.0 mi NW 9.2 mph - N/A   Overcast